Regional Weather Roundup
Issued by NWS State College, PA

Home | Current Version | Previous Version | Text Only | Print | Product List | Glossary On
Versions: 1 2 3 4 5 6 7 8 9 10 11 12 13 14 15 16 17 18 19 20 21 22 23 24 25 26 27 28 29 30 31 32 33 34 35 36 37 38 39 40 41 42 43 44 45 46 47 48 49 50
000
ASUS41 KCTP 222010
RWRCTP

REGIONAL WEATHER ROUNDUP
NATIONAL WEATHER SERVICE STATE COLLEGE PA
400 PM EDT FRI AUG 22 2014

Note: "fair" indicates few or no clouds below 12,000 feet with no
significant weather and/or obstructions to visibility.

* = STATION THAT DOES NOT REPORT PRECIPITATION /E.G. RAIN...SNOW...ETC/
    THUNDER OR FOG.

PAZ002>004-007>009-013>016-020>023-029>032-222100-
WESTERN PENNSYLVANIA

CITY           SKY/WX    TMP DP  RH WIND       PRES   REMARKS
ERIE           MOSUNNY   78  68  71 N9        29.97F
MEADVILLE      PTSUNNY   77  69  76 N5        29.99S
FRANKLIN*      PTSUNNY   79  66  65 CALM      29.99F
NEW CASTLE     NOT AVBL
BEAVER COUNTY  PTSUNNY   82  68  61 CALM      29.98F
BUTLER*        MOSUNNY   82  70  65 W3        29.98F
PITTSBURGH INT PTSUNNY   80  68  66 CALM      29.97F
PITTSBURGH     PTSUNNY   79  69  71 S5        29.97F
INDIANA*       CLOUDY    77  70  78 CALM      30.03S
LATROBE        PTSUNNY   81  72  74 W7        29.98F
WASHINGTON CO* CLOUDY    81  70  69 W5        29.98F
$$

PAZ004>006-010>012-017>019-024>028-033>037-041-042-045-046-049>053-222100-
CENTRAL PENNSYLVANIA

CITY           SKY/WX    TMP DP  RH WIND       PRES   REMARKS
BRADFORD       MOSUNNY   78  65  63 NW6       30.00F
DUBOIS         PTSUNNY   75  68  78 CALM      30.00F
CLEARFIELD     PTSUNNY   73  69  87 CALM      30.00F
JOHNSTOWN      CLOUDY    71  67  87 SE5       30.02F
ALTOONA        PTSUNNY   74  69  85 E5        30.01F
STATE COLLEGE  PTSUNNY   75  68  78 SW8       29.99F
WILLIAMSPORT   MOSUNNY   83  67  58 S10G24    29.92F
SELINSGROVE    LGT RAIN  79  69  71 SE7       29.95F
FT INDIANTOWN  PTSUNNY   77  72  83 SE9       29.98F
CAPITAL CITY   PTSUNNY   77  68  73 E7        29.97F
HARRISBURG     PTSUNNY   80  69  69 SE6       29.96F
YORK           CLOUDY    76  70  82 VRB3      29.98F
$$

PAZ038>040-043-044-047-048-054-055-060>062-067>071-222100-
EASTERN PENNSYLVANIA

CITY           SKY/WX    TMP DP  RH WIND       PRES   REMARKS
SCRANTON       PTSUNNY   72  67  84 SE6       30.00F
MOUNT POCONO   CLOUDY    67  62  84 SE6       30.05F
ALLENTOWN      CLOUDY    75  64  69 SE9       29.99F
QUAKERTOWN*    CLOUDY    73  66  78 MISG      30.02S
READING        CLOUDY    79  65  62 VRB5      29.98F
LANCASTER      CLOUDY    75  66  73 E8        29.99F
COATESVILLE    CLOUDY    75  75 100 SE3       30.01F
POTTSTOWN      CLOUDY    75  65  70 VRB3      30.01F
BLUE BELL      PTSUNNY   77  68  73 SE5       30.00S
DOYLESTOWN     CLOUDY    73  66  78 VRB3      30.00F
WILLOW GROVE   NOT AVBL
NORTH PHILA    CLOUDY    76  63  64 E8        30.01S
PHILADELPHIA   CLOUDY    76  66  71 E8        30.00S
$$


USA.gov is the U.S. government's official web portal to all federal, state and local government web resources and services.